Curacao, Curacao

9:03 PM AST on August 29, 2016 (GMT -0400)
Willemstad-Hato International

Weather History for TNCC - December, 2012

Change the Weather History Date:

Saturday, December 22, 2012

  Actual Average Record
Temperature  
Mean Temperature 73 °F -  
Max Temperature 77 °F 84 °F 89 °F (2014)
Min Temperature 69 °F 75 °F 69 °F (2012)
Cooling Degree Days 8    
Growing Degree Days 23 (Base 50)    
Moisture  
Dew Point 73 °F    
Average Humidity 95    
Maximum Humidity 100    
Minimum Humidity 89    
Precipitation  
Precipitation 0.75 in 0.08 in - ()
Sea Level Pressure  
Sea Level Pressure 29.87 in    
Wind  
Wind Speed 8 mph ()    
Max Wind Speed 17 mph    
Max Gust Speed -    
Visibility 6.3 miles    
Events Rain , Thunderstorm    
Averages and records for this station are not official NWS values.
T = Trace of Precipitation, MM = Missing Value Source: Averaged Metar Reports

Daily Weather History Graph

Daily Weather History Graph

Search for Another Location

Airport or City:

Trip Planner

Search our weather history database for the weather conditions in past years. The results will help you decide how hot, cold, wet, or windy it might be!

Date:

Astronomy

Dec. 22, 2012 Rise Set
Actual Time 6:52 AM AST 6:17 PM AST
Civil Twilight 6:29 AM AST 6:40 PM AST
Nautical Twilight 6:02 AM AST 7:06 PM AST
Astronomical Twilight 5:36 AM AST 7:33 PM AST
Moon 2:05 PM AST (12/22) 2:05 AM AST (12/22)
Length of Visible Light 12h 10m
Length of Day
11h 24m
Waxing Gibbous, 73% of the Moon is Illuminated
Dec 22
Waxing Gibbous
Dec 28
Full
Jan 4
Last Quarter
Jan 11
New
Jan 18
First Quarter

Hourly Weather History & Observations

Time (AST) Temp. Dew Point Humidity Pressure Visibility Wind Dir Wind Speed Gust Speed Precip Events Conditions
12:00 AM 75.2 °F 71.6 °F 89% 29.89 in 6.2 mi East 11.5 mph - N/A   Scattered Clouds
1:00 AM 77.0 °F 73.4 °F 89% 29.89 in 6.2 mi East 8.1 mph - N/A   Scattered Clouds
2:00 AM 75.2 °F 73.4 °F 94% 29.86 in 6.2 mi ESE 3.5 mph - N/A Rain Light Rain Showers
3:00 AM 73.4 °F 71.6 °F 94% 29.83 in 6.2 mi SE 4.6 mph - N/A   Scattered Clouds
4:00 AM 73.4 °F 73.4 °F 100% 29.83 in 6.2 mi ESE 6.9 mph - N/A   Scattered Clouds
5:00 AM 73.4 °F 73.4 °F 100% 29.83 in 6.2 mi ESE 4.6 mph - N/A   Scattered Clouds
6:00 AM 75.2 °F 75.2 °F 100% 29.83 in 6.2 mi SE 6.9 mph - N/A   Scattered Clouds
7:00 AM 69.8 °F 69.8 °F 100% 29.86 in 1.9 mi SE 17.3 mph - N/A Rain , Thunderstorm Thunderstorms and Rain
8:00 AM 69.8 °F 69.8 °F 100% 29.89 in 3.1 mi SE 12.7 mph - N/A Rain Rain
9:00 AM 75.2 °F 75.2 °F 100% 29.92 in 5.6 mi SE 6.9 mph - N/A Rain Light Rain
10:00 AM 75.2 °F 75.2 °F 100% 29.89 in 6.2 mi ESE 9.2 mph - N/A   Scattered Clouds
11:00 AM 71 °F 71 °F 99% 29.93 in 2 mi SSE 15.0 mph - - Rain Heavy Rain Showers
11:00 AM 71.6 °F 71.6 °F 100% 29.92 in 1.9 mi SSE 15.0 mph - N/A Rain Rain Showers
12:00 PM 75.2 °F 75.2 °F 100% 29.92 in 5.0 mi Variable 1.2 mph - N/A Rain Light Rain Showers
1:00 PM 71.6 °F 71.6 °F 100% 29.92 in 3.7 mi Variable 3.5 mph - N/A Rain Light Rain
1:18 PM 73.4 °F 73.4 °F 100% 29.89 in 3.7 mi Calm Calm - N/A Rain , Thunderstorm Light Thunderstorms and Rain
2:00 PM 76 °F 75 °F 95% 29.88 in 4 mi SE 4.6 mph - - Rain Light Rain
2:00 PM 77.0 °F 75.2 °F 94% 29.89 in 3.7 mi SE 4.6 mph - N/A Rain Light Rain
3:00 PM 75.2 °F 73.4 °F 94% 29.83 in 6.2 mi East 11.5 mph - N/A   Partly Cloudy
4:00 PM 75.2 °F 73.4 °F 94% 29.83 in 6.2 mi ENE 11.5 mph - N/A   Partly Cloudy
5:00 PM 76 °F 74 °F 91% 29.83 in 16 mi East 13.8 mph - -   Mostly Cloudy
5:00 PM 75.2 °F 73.4 °F 94% 29.83 in 6.2 mi East 13.8 mph - N/A   Mostly Cloudy
6:00 PM 75.2 °F 73.4 °F 94% 29.83 in 6.2 mi East 13.8 mph - N/A   Partly Cloudy
7:00 PM 75.2 °F 71.6 °F 89% 29.83 in 6.2 mi ESE 8.1 mph - N/A   Partly Cloudy
8:00 PM 76 °F 74 °F 92% 29.88 in 16 mi East 12.7 mph - -   Partly Cloudy
8:00 PM 77.0 °F 73.4 °F 89% 29.86 in 6.2 mi East 12.7 mph - N/A   Scattered Clouds
9:00 PM 77.0 °F 73.4 °F 89% 29.89 in 6.2 mi East 13.8 mph - N/A   Scattered Clouds
10:00 PM 77.0 °F 73.4 °F 89% 29.92 in 6.2 mi East 12.7 mph - N/A   Scattered Clouds
11:00 PM 77 °F 74 °F 89% 29.93 in 16 mi ESE 11.5 mph - -   Partly Cloudy
11:00 PM 77.0 °F 75.2 °F 94% 29.92 in 6.2 mi East 10.4 mph - N/A   Scattered Clouds